Time,TemperatureF,DewpointF,PressureIn,WindDirection,WindDirectionDegrees,WindSpeedMPH,WindSpeedGustMPH,Humidity,HourlyPrecipIn,Conditions,Clouds,dailyrainin,SoftwareType,DateUTC
2013-04-09 00:03:00,70.7,66.6,29.67,SSE,157,10.0,-999.0,87,0.00,,,0.00,Wunderground v.1.15,2013-04-09 05:03:00,
2013-04-09 00:09:00,70.7,66.6,29.67,South,172,9.0,-999.0,87,0.00,,,0.00,Wunderground v.1.15,2013-04-09 05:09:00,
2013-04-09 00:15:00,70.7,66.6,29.67,SW,219,11.0,-999.0,87,0.00,,,0.00,Wunderground v.1.15,2013-04-09 05:15:00,
2013-04-09 00:21:00,70.6,66.5,29.67,South,176,10.0,-999.0,87,0.00,,,0.00,Wunderground v.1.15,2013-04-09 05:21:00,
2013-04-09 00:27:00,70.6,66.5,29.67,SSE,159,9.0,-999.0,87,0.00,,,0.00,Wunderground v.1.15,2013-04-09 05:27:00,
2013-04-09 00:34:00,70.6,66.5,29.67,SE,146,10.0,-999.0,87,0.00,,,0.00,Wunderground v.1.15,2013-04-09 05:34:00,
2013-04-09 00:39:00,70.6,66.5,29.67,SSE,149,10.0,-999.0,87,0.00,,,0.00,Wunderground v.1.15,2013-04-09 05:39:00,
2013-04-09 00:45:00,70.6,66.2,29.67,SSE,164,11.0,-999.0,86,0.00,,,0.00,Wunderground v.1.15,2013-04-09 05:45:00,
2013-04-09 00:51:00,70.6,66.2,29.66,SE,139,10.0,-999.0,86,0.00,,,0.00,Wunderground v.1.15,2013-04-09 05:51:00,
2013-04-09 00:57:00,70.7,66.3,29.66,SSE,163,9.0,-999.0,86,0.00,,,0.00,Wunderground v.1.15,2013-04-09 05:57:00,
2013-04-09 01:03:00,70.7,66.3,29.66,SSE,147,9.0,-999.0,86,0.00,,,0.00,Wunderground v.1.15,2013-04-09 06:03:00,
2013-04-09 01:09:00,70.7,66.3,29.66,South,183,9.0,-999.0,86,0.00,,,0.00,Wunderground v.1.15,2013-04-09 06:09:00,
2013-04-09 01:15:00,70.7,66.3,29.66,SSE,149,7.0,-999.0,86,0.00,,,0.00,Wunderground v.1.15,2013-04-09 06:15:00,
2013-04-09 01:22:00,70.7,66.3,29.66,SSE,149,7.0,-999.0,86,0.00,,,0.00,Wunderground v.1.15,2013-04-09 06:22:00,
2013-04-09 01:28:00,70.7,66.3,29.66,South,169,7.0,-999.0,86,0.00,,,0.00,Wunderground v.1.15,2013-04-09 06:28:00,
2013-04-09 01:33:00,70.7,66.3,29.66,SE,146,7.0,-999.0,86,0.00,,,0.00,Wunderground v.1.15,2013-04-09 06:33:00,
2013-04-09 01:39:00,70.7,66.3,29.66,SSE,151,7.0,-999.0,86,0.00,,,0.00,Wunderground v.1.15,2013-04-09 06:39:00,
2013-04-09 01:45:00,70.8,66.4,29.66,SSE,154,8.0,-999.0,86,0.00,,,0.00,Wunderground v.1.15,2013-04-09 06:45:00,
2013-04-09 01:51:00,70.9,66.5,29.66,SE,139,7.0,-999.0,86,0.00,,,0.00,Wunderground v.1.15,2013-04-09 06:51:00,
2013-04-09 01:57:00,71.0,66.3,29.66,SE,136,8.0,-999.0,85,0.00,,,0.00,Wunderground v.1.15,2013-04-09 06:57:00,
2013-04-09 02:03:00,71.1,66.0,29.66,SW,225,9.0,-999.0,84,0.00,,,0.00,Wunderground v.1.15,2013-04-09 07:03:00,
2013-04-09 02:09:00,71.2,66.1,29.66,SSE,160,8.0,-999.0,84,0.00,,,0.00,Wunderground v.1.15,2013-04-09 07:09:00,
2013-04-09 02:15:00,71.2,66.1,29.66,SSE,151,9.0,-999.0,84,0.00,,,0.00,Wunderground v.1.15,2013-04-09 07:15:00,
2013-04-09 02:21:00,71.2,66.1,29.66,SSE,152,8.0,-999.0,84,0.00,,,0.00,Wunderground v.1.15,2013-04-09 07:21:00,
2013-04-09 02:27:00,71.2,66.1,29.66,SSE,153,8.0,-999.0,84,0.00,,,0.00,Wunderground v.1.15,2013-04-09 07:27:00,
2013-04-09 02:33:00,71.1,66.0,29.66,SE,139,8.0,-999.0,84,0.00,,,0.00,Wunderground v.1.15,2013-04-09 07:33:00,
2013-04-09 02:39:00,71.2,66.1,29.65,SSE,152,8.0,-999.0,84,0.00,,,0.00,Wunderground v.1.15,2013-04-09 07:39:00,
2013-04-09 02:45:00,71.2,66.1,29.65,ESE,115,8.0,-999.0,84,0.00,,,0.00,Wunderground v.1.15,2013-04-09 07:45:00,
2013-04-09 02:51:00,71.2,66.1,29.64,SSE,158,8.0,-999.0,84,0.00,,,0.00,Wunderground v.1.15,2013-04-09 07:51:00,
2013-04-09 02:57:00,71.2,66.1,29.64,ESE,120,9.0,-999.0,84,0.00,,,0.00,Wunderground v.1.15,2013-04-09 07:57:00,
2013-04-09 03:03:00,71.2,66.1,29.64,SSE,156,10.0,-999.0,84,0.00,,,0.00,Wunderground v.1.15,2013-04-09 08:03:00,
2013-04-09 03:09:00,71.2,66.1,29.63,SSE,152,9.0,-999.0,84,0.00,,,0.00,Wunderground v.1.15,2013-04-09 08:09:00,
2013-04-09 03:15:00,71.3,65.9,29.63,SE,145,11.0,-999.0,83,0.00,,,0.00,Wunderground v.1.15,2013-04-09 08:15:00,
2013-04-09 03:21:00,71.3,65.9,29.63,SE,136,11.0,-999.0,83,0.00,,,0.00,Wunderground v.1.15,2013-04-09 08:21:00,
2013-04-09 03:27:00,71.2,65.8,29.63,East,99,10.0,-999.0,83,0.00,,,0.00,Wunderground v.1.15,2013-04-09 08:27:00,
2013-04-09 03:33:00,71.2,65.8,29.63,SSE,164,10.0,-999.0,83,0.00,,,0.00,Wunderground v.1.15,2013-04-09 08:33:00,
2013-04-09 03:39:00,71.1,65.7,29.63,SE,135,10.0,-999.0,83,0.00,,,0.00,Wunderground v.1.15,2013-04-09 08:39:00,
2013-04-09 03:45:00,71.0,65.6,29.63,South,179,9.0,-999.0,83,0.00,,,0.00,Wunderground v.1.15,2013-04-09 08:45:00,
2013-04-09 03:51:00,71.0,65.6,29.63,SSW,202,8.0,-999.0,83,0.00,,,0.00,Wunderground v.1.15,2013-04-09 08:51:00,
2013-04-09 03:57:00,71.0,65.9,29.63,SE,146,8.0,-999.0,84,0.00,,,0.00,Wunderground v.1.15,2013-04-09 08:57:00,
2013-04-09 04:05:00,70.9,65.8,29.63,SE,146,7.0,-999.0,84,0.00,,,0.00,Wunderground v.1.15,2013-04-09 09:05:00,
2013-04-09 04:11:00,70.9,65.8,29.63,SSE,147,8.0,-999.0,84,0.00,,,0.00,Wunderground v.1.15,2013-04-09 09:11:00,
2013-04-09 04:17:00,70.9,65.8,29.63,SE,127,8.0,-999.0,84,0.00,,,0.00,Wunderground v.1.15,2013-04-09 09:17:00,
2013-04-09 04:25:00,70.9,65.8,29.63,SSE,147,9.0,-999.0,84,0.00,,,0.00,Wunderground v.1.15,2013-04-09 09:25:00,
2013-04-09 04:31:00,70.8,65.7,29.63,SSE,160,8.0,-999.0,84,0.00,,,0.00,Wunderground v.1.15,2013-04-09 09:31:00,
2013-04-09 04:37:00,70.8,65.7,29.63,SE,134,9.0,-999.0,84,0.00,,,0.00,Wunderground v.1.15,2013-04-09 09:37:00,
2013-04-09 04:45:00,70.7,65.6,29.63,SSE,168,8.0,-999.0,84,0.00,,,0.00,Wunderground v.1.15,2013-04-09 09:45:00,
2013-04-09 04:51:00,70.7,65.6,29.63,WNW,298,6.0,-999.0,84,0.00,,,0.00,Wunderground v.1.15,2013-04-09 09:51:00,
2013-04-09 04:57:00,70.7,65.6,29.63,SSE,152,7.0,-999.0,84,0.00,,,0.00,Wunderground v.1.15,2013-04-09 09:57:00,
2013-04-09 05:03:00,70.6,65.9,29.63,SSE,155,8.0,-999.0,85,0.00,,,0.00,Wunderground v.1.15,2013-04-09 10:03:00,
2013-04-09 05:09:00,70.5,65.8,29.62,SSE,149,8.0,-999.0,85,0.00,,,0.00,Wunderground v.1.15,2013-04-09 10:09:00,
2013-04-09 05:15:00,70.5,65.8,29.62,South,176,8.0,-999.0,85,0.00,,,0.00,Wunderground v.1.15,2013-04-09 10:15:00,
2013-04-09 05:22:00,70.5,65.8,29.62,SSW,197,8.0,-999.0,85,0.00,,,0.00,Wunderground v.1.15,2013-04-09 10:22:00,
2013-04-09 05:27:00,70.3,65.6,29.62,SE,143,7.0,-999.0,85,0.00,,,0.00,Wunderground v.1.15,2013-04-09 10:27:00,
2013-04-09 05:33:00,70.3,65.9,29.62,SSE,160,6.0,-999.0,86,0.00,,,0.00,Wunderground v.1.15,2013-04-09 10:33:00,
2013-04-09 05:39:00,70.3,65.9,29.63,SSE,160,5.0,-999.0,86,0.00,,,0.00,Wunderground v.1.15,2013-04-09 10:39:00,
2013-04-09 05:45:00,70.3,65.9,29.63,SSE,152,6.0,-999.0,86,0.00,,,0.00,Wunderground v.1.15,2013-04-09 10:45:00,
2013-04-09 05:51:00,70.3,65.9,29.63,SSE,153,6.0,-999.0,86,0.00,,,0.00,Wunderground v.1.15,2013-04-09 10:51:00,
2013-04-09 05:57:00,70.2,65.8,29.63,SE,142,5.0,-999.0,86,0.00,,,0.00,Wunderground v.1.15,2013-04-09 10:57:00,
2013-04-09 06:03:00,70.2,65.8,29.63,SE,143,5.0,-999.0,86,0.00,,,0.00,Wunderground v.1.15,2013-04-09 11:03:00,
2013-04-09 06:09:00,70.1,65.7,29.63,South,183,4.0,-999.0,86,0.00,,,0.00,Wunderground v.1.15,2013-04-09 11:09:00,
2013-04-09 06:15:00,70.1,66.0,29.63,SE,139,4.0,-999.0,87,0.00,,,0.00,Wunderground v.1.15,2013-04-09 11:15:00,
2013-04-09 06:21:00,70.0,66.0,29.63,SE,141,4.0,-999.0,87,0.00,,,0.00,Wunderground v.1.15,2013-04-09 11:21:00,
2013-04-09 06:27:00,70.0,66.0,29.63,SSE,155,3.0,-999.0,87,0.00,,,0.00,Wunderground v.1.15,2013-04-09 11:27:00,
2013-04-09 06:34:00,70.0,66.0,29.63,SSE,162,3.0,-999.0,87,0.00,,,0.00,Wunderground v.1.15,2013-04-09 11:34:00,
2013-04-09 06:39:00,69.9,65.9,29.63,SE,127,3.0,-999.0,87,0.00,,,0.00,Wunderground v.1.15,2013-04-09 11:39:00,
2013-04-09 06:45:00,69.8,66.1,29.63,SE,142,3.0,-999.0,88,0.00,,,0.00,Wunderground v.1.15,2013-04-09 11:45:00,
2013-04-09 06:51:00,69.7,66.0,29.63,SE,139,3.0,-999.0,88,0.00,,,0.00,Wunderground v.1.15,2013-04-09 11:51:00,
2013-04-09 06:57:00,69.7,66.0,29.63,SSE,149,3.0,-999.0,88,0.00,,,0.00,Wunderground v.1.15,2013-04-09 11:57:00,
2013-04-09 07:04:00,69.7,66.0,29.63,SE,136,3.0,-999.0,88,0.00,,,0.00,Wunderground v.1.15,2013-04-09 12:04:00,
2013-04-09 07:09:00,69.7,66.0,29.63,SE,132,3.0,-999.0,88,0.00,,,0.00,Wunderground v.1.15,2013-04-09 12:09:00,
2013-04-09 07:15:00,69.7,66.3,29.63,SE,131,4.0,-999.0,89,0.00,,,0.00,Wunderground v.1.15,2013-04-09 12:15:00,
2013-04-09 07:21:00,69.8,66.4,29.64,SE,145,4.0,-999.0,89,0.00,,,0.00,Wunderground v.1.15,2013-04-09 12:21:00,
2013-04-09 07:27:00,69.9,66.5,29.64,SE,136,4.0,-999.0,89,0.00,,,0.00,Wunderground v.1.15,2013-04-09 12:27:00,
2013-04-09 07:35:00,69.9,66.5,29.65,SE,145,4.0,-999.0,89,0.00,,,0.00,Wunderground v.1.15,2013-04-09 12:35:00,
2013-04-09 07:42:00,70.0,66.6,29.64,South,169,4.0,-999.0,89,0.00,,,0.00,Wunderground v.1.15,2013-04-09 12:42:00,
2013-04-09 07:47:00,70.1,66.7,29.65,SE,131,5.0,-999.0,89,0.00,,,0.00,Wunderground v.1.15,2013-04-09 12:47:00,
2013-04-09 07:55:00,70.2,66.8,29.64,SE,127,5.0,-999.0,89,0.00,,,0.00,Wunderground v.1.15,2013-04-09 12:55:00,
2013-04-09 08:03:00,70.1,66.7,29.64,SSE,152,5.0,-999.0,89,0.00,,,0.00,Wunderground v.1.15,2013-04-09 13:03:00,
2013-04-09 08:09:00,70.2,66.8,29.65,SSE,160,6.0,-999.0,89,0.00,,,0.00,Wunderground v.1.15,2013-04-09 13:09:00,
2013-04-09 08:15:00,70.2,66.8,29.65,SE,134,7.0,-999.0,89,0.00,,,0.00,Wunderground v.1.15,2013-04-09 13:15:00,
2013-04-09 08:21:00,70.2,66.8,29.65,SE,131,7.0,-999.0,89,0.00,,,0.00,Wunderground v.1.15,2013-04-09 13:21:00,
2013-04-09 08:27:00,70.2,66.5,29.65,SE,142,6.0,-999.0,88,0.00,,,0.00,Wunderground v.1.15,2013-04-09 13:27:00,
2013-04-09 08:33:00,70.3,66.6,29.65,SSE,155,6.0,-999.0,88,0.00,,,0.00,Wunderground v.1.15,2013-04-09 13:33:00,
2013-04-09 08:39:00,70.4,66.7,29.64,SE,143,5.0,-999.0,88,0.00,,,0.00,Wunderground v.1.15,2013-04-09 13:39:00,
2013-04-09 08:45:00,70.3,66.6,29.64,SE,141,7.0,-999.0,88,0.00,,,0.00,Wunderground v.1.15,2013-04-09 13:45:00,
2013-04-09 08:54:00,70.4,66.7,29.64,SE,134,6.0,-999.0,88,0.00,,,0.00,Wunderground v.1.15,2013-04-09 13:54:00,
2013-04-09 08:59:00,70.5,66.8,29.64,SSE,149,7.0,-999.0,88,0.00,,,0.00,Wunderground v.1.15,2013-04-09 13:59:00,
2013-04-09 09:05:00,70.6,66.9,29.64,SSE,166,8.0,-999.0,88,0.00,,,0.00,Wunderground v.1.15,2013-04-09 14:05:00,
2013-04-09 09:11:00,70.5,66.8,29.65,South,191,8.0,-999.0,88,0.00,,,0.00,Wunderground v.1.15,2013-04-09 14:11:00,
2013-04-09 09:17:00,70.5,66.8,29.65,SSE,158,7.0,-999.0,88,0.00,,,0.00,Wunderground v.1.15,2013-04-09 14:17:00,
2013-04-09 09:23:00,70.4,66.7,29.65,SE,141,6.0,-999.0,88,0.00,,,0.00,Wunderground v.1.15,2013-04-09 14:23:00,
2013-04-09 09:29:00,70.4,67.0,29.65,East,82,6.0,-999.0,89,0.00,,,0.00,Wunderground v.1.15,2013-04-09 14:29:00,
2013-04-09 09:35:00,70.3,66.9,29.65,ESE,116,6.0,-999.0,89,0.00,,,0.00,Wunderground v.1.15,2013-04-09 14:35:00,
2013-04-09 09:42:00,70.4,67.0,29.65,SE,138,5.0,-999.0,89,0.00,,,0.00,Wunderground v.1.15,2013-04-09 14:42:00,
2013-04-09 09:47:00,70.4,67.0,29.65,SE,125,5.0,-999.0,89,0.00,,,0.00,Wunderground v.1.15,2013-04-09 14:47:00,
2013-04-09 09:53:00,70.4,67.0,29.65,SSE,158,5.0,-999.0,89,0.00,,,0.00,Wunderground v.1.15,2013-04-09 14:53:00,
2013-04-09 09:59:00,70.5,67.1,29.65,SSE,159,5.0,-999.0,89,0.00,,,0.00,Wunderground v.1.15,2013-04-09 14:59:00,
2013-04-09 10:05:00,70.6,66.9,29.65,SE,143,6.0,-999.0,88,0.00,,,0.00,Wunderground v.1.15,2013-04-09 15:05:00,
2013-04-09 10:12:00,70.7,67.0,29.65,SE,139,7.0,-999.0,88,0.00,,,0.00,Wunderground v.1.15,2013-04-09 15:12:00,
2013-04-09 10:17:00,70.9,67.2,29.65,South,184,7.0,-999.0,88,0.00,,,0.00,Wunderground v.1.15,2013-04-09 15:17:00,
2013-04-09 10:23:00,71.1,67.0,29.65,SE,131,7.0,-999.0,87,0.00,,,0.00,Wunderground v.1.15,2013-04-09 15:23:00,
2013-04-09 10:29:00,71.3,67.2,29.65,SSE,150,7.0,-999.0,87,0.00,,,0.00,Wunderground v.1.15,2013-04-09 15:29:00,
2013-04-09 10:36:00,71.3,67.2,29.66,SSE,165,8.0,-999.0,87,0.00,,,0.00,Wunderground v.1.15,2013-04-09 15:36:00,
2013-04-09 10:41:00,71.4,67.3,29.66,SE,139,8.0,-999.0,87,0.00,,,0.00,Wunderground v.1.15,2013-04-09 15:41:00,
2013-04-09 10:47:00,71.5,67.4,29.66,SSE,152,7.0,-999.0,87,0.00,,,0.00,Wunderground v.1.15,2013-04-09 15:47:00,
2013-04-09 10:53:00,71.6,67.5,29.66,SE,142,6.0,-999.0,87,0.00,,,0.00,Wunderground v.1.15,2013-04-09 15:53:00,
2013-04-09 11:00:00,71.7,67.3,29.66,SE,134,6.0,-999.0,86,0.00,,,0.00,Wunderground v.1.15,2013-04-09 16:00:00,
2013-04-09 11:06:00,71.6,67.2,29.66,West,259,7.0,-999.0,86,0.00,,,0.00,Wunderground v.1.15,2013-04-09 16:06:00,
2013-04-09 11:11:00,71.6,67.2,29.66,South,169,7.0,-999.0,86,0.00,,,0.00,Wunderground v.1.15,2013-04-09 16:11:00,
2013-04-09 11:17:00,71.7,67.3,29.66,ESE,116,7.0,-999.0,86,0.00,,,0.00,Wunderground v.1.15,2013-04-09 16:17:00,
2013-04-09 11:25:00,71.9,67.5,29.66,SSE,149,6.0,-999.0,86,0.00,,,0.00,Wunderground v.1.15,2013-04-09 16:25:00,
2013-04-09 11:32:00,72.0,67.2,29.66,SSE,152,6.0,-999.0,85,0.00,,,0.00,Wunderground v.1.15,2013-04-09 16:32:00,
2013-04-09 11:37:00,72.1,67.3,29.66,SE,146,6.0,-999.0,85,0.00,,,0.00,Wunderground v.1.15,2013-04-09 16:37:00,
2013-04-09 11:44:00,72.3,67.5,29.67,SSE,168,6.0,-999.0,85,0.00,,,0.00,Wunderground v.1.15,2013-04-09 16:44:00,
2013-04-09 11:49:00,72.4,67.6,29.67,SSE,148,6.0,-999.0,85,0.00,,,0.00,Wunderground v.1.15,2013-04-09 16:49:00,
2013-04-09 11:55:00,72.4,67.6,29.66,SE,127,5.0,-999.0,85,0.00,,,0.00,Wunderground v.1.15,2013-04-09 16:55:00,
2013-04-09 12:03:00,72.5,67.7,29.66,East,93,4.0,-999.0,85,0.00,,,0.00,Wunderground v.1.15,2013-04-09 17:03:00,
2013-04-09 12:09:00,72.8,67.7,29.66,SSE,153,5.0,-999.0,84,0.00,,,0.00,Wunderground v.1.15,2013-04-09 17:09:00,
2013-04-09 12:15:00,73.3,68.2,29.66,SSE,152,5.0,-999.0,84,0.00,,,0.00,Wunderground v.1.15,2013-04-09 17:15:00,
2013-04-09 12:22:00,74.2,68.3,29.65,SE,138,6.0,-999.0,82,0.00,,,0.00,Wunderground v.1.15,2013-04-09 17:22:00,
2013-04-09 12:27:00,74.7,68.5,29.65,SSE,156,7.0,-999.0,81,0.00,,,0.00,Wunderground v.1.15,2013-04-09 17:27:00,
2013-04-09 12:33:00,75.6,69.0,29.64,ESE,117,7.0,-999.0,80,0.00,,,0.00,Wunderground v.1.15,2013-04-09 17:33:00,
2013-04-09 12:39:00,76.3,69.3,29.64,SE,143,7.0,-999.0,79,0.00,,,0.00,Wunderground v.1.15,2013-04-09 17:39:00,
2013-04-09 12:45:00,76.9,69.5,29.63,SSE,165,8.0,-999.0,78,0.00,,,0.00,Wunderground v.1.15,2013-04-09 17:45:00,
2013-04-09 12:51:00,77.7,69.5,29.63,ESE,113,8.0,-999.0,76,0.00,,,0.00,Wunderground v.1.15,2013-04-09 17:51:00,
2013-04-09 12:58:00,77.9,69.7,29.63,SSW,208,8.0,-999.0,76,0.00,,,0.00,Wunderground v.1.15,2013-04-09 17:58:00,
2013-04-09 13:03:00,78.4,69.4,29.63,South,179,8.0,-999.0,74,0.00,,,0.00,Wunderground v.1.15,2013-04-09 18:03:00,
2013-04-09 13:09:00,78.5,69.5,29.63,South,181,7.0,-999.0,74,0.00,,,0.00,Wunderground v.1.15,2013-04-09 18:09:00,
2013-04-09 13:16:00,78.4,69.4,29.62,SSE,156,8.0,-999.0,74,0.00,,,0.00,Wunderground v.1.15,2013-04-09 18:16:00,
2013-04-09 13:21:00,78.9,69.5,29.62,SSE,160,7.0,-999.0,73,0.00,,,0.00,Wunderground v.1.15,2013-04-09 18:21:00,
2013-04-09 13:27:00,79.1,69.3,29.62,SSE,149,6.0,-999.0,72,0.00,,,0.00,Wunderground v.1.15,2013-04-09 18:27:00,
2013-04-09 13:35:00,80.4,69.7,29.61,WSW,237,6.0,-999.0,70,0.00,,,0.00,Wunderground v.1.15,2013-04-09 18:35:00,
2013-04-09 13:41:00,81.1,70.0,29.61,SSE,159,6.0,-999.0,69,0.00,,,0.00,Wunderground v.1.15,2013-04-09 18:41:00,
2013-04-09 13:47:00,81.7,69.2,29.60,SE,138,6.0,-999.0,66,0.00,,,0.00,Wunderground v.1.15,2013-04-09 18:47:00,
2013-04-09 13:53:00,82.5,70.4,29.60,SSE,156,6.0,-999.0,67,0.00,,,0.00,Wunderground v.1.15,2013-04-09 18:53:00,
2013-04-09 13:59:00,82.2,69.7,29.59,SW,226,7.0,-999.0,66,0.00,,,0.00,Wunderground v.1.15,2013-04-09 18:59:00,
2013-04-09 14:06:00,83.1,70.1,29.59,SSE,167,7.0,-999.0,65,0.00,,,0.00,Wunderground v.1.15,2013-04-09 19:06:00,
2013-04-09 14:11:00,82.7,70.2,29.59,SSE,165,7.0,-999.0,66,0.00,,,0.00,Wunderground v.1.15,2013-04-09 19:11:00,
2013-04-09 14:17:00,82.5,70.0,29.59,SSW,205,7.0,-999.0,66,0.00,,,0.00,Wunderground v.1.15,2013-04-09 19:17:00,
2013-04-09 14:23:00,82.6,70.1,29.58,SE,145,7.0,-999.0,66,0.00,,,0.00,Wunderground v.1.15,2013-04-09 19:23:00,
2013-04-09 14:30:00,82.9,69.5,29.58,SW,218,8.0,-999.0,64,0.00,,,0.00,Wunderground v.1.15,2013-04-09 19:30:00,
2013-04-09 14:35:00,83.1,69.7,29.58,SSE,159,7.0,-999.0,64,0.00,,,0.00,Wunderground v.1.15,2013-04-09 19:35:00,
2013-04-09 14:41:00,84.0,70.0,29.57,SE,140,7.0,-999.0,63,0.00,,,0.00,Wunderground v.1.15,2013-04-09 19:41:00,
2013-04-09 14:47:00,84.3,70.3,29.57,SE,146,7.0,-999.0,63,0.00,,,0.00,Wunderground v.1.15,2013-04-09 19:47:00,
2013-04-09 14:53:00,85.0,70.5,29.57,SE,141,6.0,-999.0,62,0.00,,,0.00,Wunderground v.1.15,2013-04-09 19:53:00,
2013-04-09 14:59:00,84.9,69.9,29.56,East,86,6.0,-999.0,61,0.00,,,0.00,Wunderground v.1.15,2013-04-09 19:59:00,
2013-04-09 15:05:00,85.8,69.8,29.56,SSE,148,6.0,-999.0,59,0.00,,,0.00,Wunderground v.1.15,2013-04-09 20:05:00,
2013-04-09 15:11:00,86.2,70.2,29.55,SE,141,6.0,-999.0,59,0.00,,,0.00,Wunderground v.1.15,2013-04-09 20:11:00,
2013-04-09 15:17:00,86.5,70.0,29.54,East,94,6.0,-999.0,58,0.00,,,0.00,Wunderground v.1.15,2013-04-09 20:17:00,
2013-04-09 15:23:00,87.2,70.1,29.54,South,174,6.0,-999.0,57,0.00,,,0.00,Wunderground v.1.15,2013-04-09 20:23:00,
2013-04-09 15:29:00,86.9,69.3,29.54,SSE,151,7.0,-999.0,56,0.00,,,0.00,Wunderground v.1.15,2013-04-09 20:29:00,
2013-04-09 15:35:00,87.0,68.9,29.54,East,93,8.0,-999.0,55,0.00,,,0.00,Wunderground v.1.15,2013-04-09 20:35:00,
2013-04-09 15:43:00,87.0,69.9,29.53,ESE,118,7.0,-999.0,57,0.00,,,0.00,Wunderground v.1.15,2013-04-09 20:43:00,
2013-04-09 15:49:00,87.6,69.4,29.53,SSE,148,7.0,-999.0,55,0.00,,,0.00,Wunderground v.1.15,2013-04-09 20:49:00,
2013-04-09 15:55:00,88.4,70.7,29.53,SE,132,7.0,-999.0,56,0.00,,,0.00,Wunderground v.1.15,2013-04-09 20:55:00,
2013-04-09 16:05:00,88.3,70.6,29.52,SE,128,6.0,-999.0,56,0.00,,,0.00,Wunderground v.1.15,2013-04-09 21:05:00,
2013-04-09 16:11:00,88.3,70.6,29.52,East,91,7.0,-999.0,56,0.00,,,0.00,Wunderground v.1.15,2013-04-09 21:11:00,
2013-04-09 16:17:00,88.1,70.9,29.52,ESE,122,6.0,-999.0,57,0.00,,,0.00,Wunderground v.1.15,2013-04-09 21:17:00,
2013-04-09 16:23:00,88.1,70.9,29.52,ESE,122,6.0,-999.0,57,0.00,,,0.00,Wunderground v.1.15,2013-04-09 21:23:00,
2013-04-09 16:29:00,88.3,71.1,29.52,East,91,6.0,-999.0,57,0.00,,,0.00,Wunderground v.1.15,2013-04-09 21:29:00,
2013-04-09 16:35:00,88.3,71.1,29.52,South,184,6.0,-999.0,57,0.00,,,0.00,Wunderground v.1.15,2013-04-09 21:35:00,
2013-04-09 16:43:00,88.2,71.0,29.52,NNW,340,6.0,-999.0,57,0.00,,,0.00,Wunderground v.1.15,2013-04-09 21:43:00,
2013-04-09 16:49:00,87.7,70.6,29.52,ESE,108,7.0,-999.0,57,0.00,,,0.00,Wunderground v.1.15,2013-04-09 21:49:00,
2013-04-09 16:55:00,87.3,71.2,29.52,East,100,7.0,-999.0,59,0.00,,,0.00,Wunderground v.1.15,2013-04-09 21:55:00,
2013-04-09 17:05:00,87.3,70.7,29.52,ESE,110,5.0,-999.0,58,0.00,,,0.00,Wunderground v.1.15,2013-04-09 22:05:00,
2013-04-09 17:11:00,87.5,70.9,29.52,East,97,5.0,-999.0,58,0.00,,,0.00,Wunderground v.1.15,2013-04-09 22:11:00,
2013-04-09 17:17:00,87.3,70.7,29.52,ESE,115,5.0,-999.0,58,0.00,,,0.00,Wunderground v.1.15,2013-04-09 22:17:00,
2013-04-09 17:23:00,87.4,71.3,29.52,SE,129,5.0,-999.0,59,0.00,,,0.00,Wunderground v.1.15,2013-04-09 22:23:00,
2013-04-09 17:29:00,87.2,70.6,29.52,East,91,5.0,-999.0,58,0.00,,,0.00,Wunderground v.1.15,2013-04-09 22:29:00,
2013-04-09 17:35:00,86.9,70.3,29.52,SE,127,5.0,-999.0,58,0.00,,,0.00,Wunderground v.1.15,2013-04-09 22:35:00,
2013-04-09 17:41:00,87.1,70.5,29.52,East,89,5.0,-999.0,58,0.00,,,0.00,Wunderground v.1.15,2013-04-09 22:41:00,
2013-04-09 17:47:00,87.1,70.0,29.52,East,101,5.0,-999.0,57,0.00,,,0.00,Wunderground v.1.15,2013-04-09 22:47:00,
2013-04-09 17:53:00,87.1,70.0,29.51,East,84,5.0,-999.0,57,0.00,,,0.00,Wunderground v.1.15,2013-04-09 22:53:00,
2013-04-09 17:59:00,87.0,69.9,29.51,East,84,5.0,-999.0,57,0.00,,,0.00,Wunderground v.1.15,2013-04-09 22:59:00,
2013-04-09 18:05:00,87.0,69.9,29.51,SE,129,6.0,-999.0,57,0.00,,,0.00,Wunderground v.1.15,2013-04-09 23:05:00,
2013-04-09 18:12:00,87.0,69.9,29.51,ESE,118,5.0,-999.0,57,0.00,,,0.00,Wunderground v.1.15,2013-04-09 23:12:00,
2013-04-09 18:17:00,86.7,70.7,29.51,ESE,103,6.0,-999.0,59,0.00,,,0.00,Wunderground v.1.15,2013-04-09 23:17:00,
2013-04-09 18:23:00,86.1,70.6,29.51,South,180,7.0,-999.0,60,0.00,,,0.00,Wunderground v.1.15,2013-04-09 23:23:00,
2013-04-09 18:29:00,85.6,70.6,29.51,ESE,115,7.0,-999.0,61,0.00,,,0.00,Wunderground v.1.15,2013-04-09 23:29:00,
2013-04-09 18:35:00,85.2,70.7,29.51,SSE,158,7.0,-999.0,62,0.00,,,0.00,Wunderground v.1.15,2013-04-09 23:35:00,
2013-04-09 18:43:00,84.7,70.2,29.51,ESE,117,7.0,-999.0,62,0.00,,,0.00,Wunderground v.1.15,2013-04-09 23:43:00,
2013-04-09 18:49:00,84.3,70.3,29.51,ESE,117,7.0,-999.0,63,0.00,,,0.00,Wunderground v.1.15,2013-04-09 23:49:00,
2013-04-09 18:55:00,84.2,70.2,29.51,South,183,6.0,-999.0,63,0.00,,,0.00,Wunderground v.1.15,2013-04-09 23:55:00,
2013-04-09 19:03:00,83.5,70.5,29.51,SE,132,6.0,-999.0,65,0.00,,,0.00,Wunderground v.1.15,2013-04-10 00:03:00,
2013-04-09 19:09:00,82.9,70.4,29.52,ENE,72,7.0,-999.0,66,0.00,,,0.00,Wunderground v.1.15,2013-04-10 00:09:00,
2013-04-09 19:15:00,82.3,70.2,29.52,SSE,160,7.0,-999.0,67,0.00,,,0.00,Wunderground v.1.15,2013-04-10 00:15:00,
2013-04-09 19:21:00,82.0,70.4,29.52,SE,141,6.0,-999.0,68,0.00,,,0.00,Wunderground v.1.15,2013-04-10 00:21:00,
2013-04-09 19:27:00,81.8,70.2,29.52,ESE,117,5.0,-999.0,68,0.00,,,0.00,Wunderground v.1.15,2013-04-10 00:27:00,
2013-04-09 19:33:00,81.5,69.9,29.52,SE,131,6.0,-999.0,68,0.00,,,0.00,Wunderground v.1.15,2013-04-10 00:33:00,
2013-04-09 19:39:00,81.3,70.2,29.53,SE,134,6.0,-999.0,69,0.00,,,0.00,Wunderground v.1.15,2013-04-10 00:39:00,
2013-04-09 19:45:00,81.0,69.9,29.53,East,93,6.0,-999.0,69,0.00,,,0.00,Wunderground v.1.15,2013-04-10 00:45:00,
2013-04-09 19:51:00,80.7,70.0,29.53,NNE,25,6.0,-999.0,70,0.00,,,0.00,Wunderground v.1.15,2013-04-10 00:51:00,
2013-04-09 19:57:00,80.5,69.8,29.53,ESE,123,5.0,-999.0,70,0.00,,,0.00,Wunderground v.1.15,2013-04-10 00:57:00,
2013-04-09 20:03:00,80.3,70.0,29.54,SE,140,5.0,-999.0,71,0.00,,,0.00,Wunderground v.1.15,2013-04-10 01:03:00,
2013-04-09 20:09:00,80.0,70.2,29.54,SE,129,5.0,-999.0,72,0.00,,,0.00,Wunderground v.1.15,2013-04-10 01:09:00,
2013-04-09 20:15:00,79.7,69.9,29.55,East,85,5.0,-999.0,72,0.00,,,0.00,Wunderground v.1.15,2013-04-10 01:15:00,
2013-04-09 20:21:00,79.5,70.1,29.55,ENE,57,6.0,-999.0,73,0.00,,,0.00,Wunderground v.1.15,2013-04-10 01:21:00,
2013-04-09 20:29:00,79.1,70.1,29.56,East,98,6.0,-999.0,74,0.00,,,0.00,Wunderground v.1.15,2013-04-10 01:29:00,
2013-04-09 20:35:00,78.7,70.1,29.56,East,80,5.0,-999.0,75,0.00,,,0.00,Wunderground v.1.15,2013-04-10 01:35:00,
2013-04-09 20:41:00,78.3,70.1,29.56,ESE,122,6.0,-999.0,76,0.00,,,0.00,Wunderground v.1.15,2013-04-10 01:41:00,
2013-04-09 20:47:00,77.9,70.1,29.56,SE,144,6.0,-999.0,77,0.00,,,0.00,Wunderground v.1.15,2013-04-10 01:47:00,
2013-04-09 20:53:00,77.4,70.0,29.56,SE,131,6.0,-999.0,78,0.00,,,0.00,Wunderground v.1.15,2013-04-10 01:53:00,
2013-04-09 20:59:00,76.9,69.9,29.57,ESE,107,6.0,-999.0,79,0.00,,,0.00,Wunderground v.1.15,2013-04-10 01:59:00,
2013-04-09 21:05:00,76.5,69.9,29.57,SE,139,6.0,-999.0,80,0.00,,,0.00,Wunderground v.1.15,2013-04-10 02:05:00,
2013-04-09 21:11:00,76.1,69.8,29.57,East,81,6.0,-999.0,81,0.00,,,0.00,Wunderground v.1.15,2013-04-10 02:11:00,
2013-04-09 21:17:00,75.7,69.8,29.58,East,84,6.0,-999.0,82,0.00,,,0.00,Wunderground v.1.15,2013-04-10 02:17:00,
2013-04-09 21:23:00,75.4,69.9,29.58,East,85,7.0,-999.0,83,0.00,,,0.00,Wunderground v.1.15,2013-04-10 02:23:00,
2013-04-09 21:29:00,75.1,69.6,29.58,SE,127,7.0,-999.0,83,0.00,,,0.00,Wunderground v.1.15,2013-04-10 02:29:00,
2013-04-09 21:35:00,74.9,69.4,29.59,South,172,7.0,-999.0,83,0.00,,,0.00,Wunderground v.1.15,2013-04-10 02:35:00,
2013-04-09 21:41:00,74.8,69.6,29.59,ESE,108,6.0,-999.0,84,0.00,,,0.00,Wunderground v.1.15,2013-04-10 02:41:00,
2013-04-09 21:47:00,74.6,69.4,29.59,ESE,110,6.0,-999.0,84,0.00,,,0.00,Wunderground v.1.15,2013-04-10 02:47:00,
2013-04-09 21:53:00,74.5,69.3,29.60,East,101,6.0,-999.0,84,0.00,,,0.00,Wunderground v.1.15,2013-04-10 02:53:00,
2013-04-09 21:59:00,74.4,69.2,29.60,SE,131,6.0,-999.0,84,0.00,,,0.00,Wunderground v.1.15,2013-04-10 02:59:00,
2013-04-09 22:06:00,74.3,69.1,29.60,SE,138,6.0,-999.0,84,0.00,,,0.00,Wunderground v.1.15,2013-04-10 03:06:00,
2013-04-09 22:11:00,74.2,69.1,29.61,SSE,150,6.0,-999.0,84,0.00,,,0.00,Wunderground v.1.15,2013-04-10 03:11:00,
2013-04-09 22:17:00,74.1,69.0,29.61,East,101,6.0,-999.0,84,0.00,,,0.00,Wunderground v.1.15,2013-04-10 03:17:00,
2013-04-09 22:23:00,74.1,69.0,29.61,ESE,123,7.0,-999.0,84,0.00,,,0.00,Wunderground v.1.15,2013-04-10 03:23:00,
2013-04-09 22:29:00,74.1,69.0,29.61,SSE,152,6.0,-999.0,84,0.00,,,0.00,Wunderground v.1.15,2013-04-10 03:29:00,
2013-04-09 22:35:00,74.1,69.0,29.61,ENE,69,8.0,-999.0,84,0.00,,,0.00,Wunderground v.1.15,2013-04-10 03:35:00,
2013-04-09 22:41:00,74.1,69.0,29.61,SSE,152,7.0,-999.0,84,0.00,,,0.00,Wunderground v.1.15,2013-04-10 03:41:00,
2013-04-09 22:47:00,74.1,69.0,29.62,SE,127,8.0,-999.0,84,0.00,,,0.00,Wunderground v.1.15,2013-04-10 03:47:00,
2013-04-09 22:53:00,74.1,69.0,29.62,ESE,121,8.0,-999.0,84,0.00,,,0.00,Wunderground v.1.15,2013-04-10 03:53:00,
2013-04-09 22:59:00,74.1,69.0,29.62,SE,131,8.0,-999.0,84,0.00,,,0.00,Wunderground v.1.15,2013-04-10 03:59:00,
2013-04-09 23:03:00,74.1,69.0,29.62,ESE,114,7.0,-999.0,84,0.00,,,0.00,Wunderground v.1.15,2013-04-10 04:03:00,
2013-04-09 23:05:00,74.1,69.0,29.62,SE,132,7.0,-999.0,84,0.00,,,0.00,Wunderground v.1.15,2013-04-10 04:05:00,
2013-04-09 23:07:00,74.1,69.0,29.62,ENE,74,7.0,-999.0,84,0.00,,,0.00,Wunderground v.1.15,2013-04-10 04:07:00,
2013-04-09 23:09:00,74.1,69.0,29.62,SSE,160,7.0,-999.0,84,0.00,,,0.00,Wunderground v.1.15,2013-04-10 04:09:00,
2013-04-09 23:15:00,74.1,69.0,29.62,SSE,159,7.0,-999.0,84,0.00,,,0.00,Wunderground v.1.15,2013-04-10 04:15:00,
2013-04-09 23:21:00,74.0,68.9,29.63,SSE,167,7.0,-999.0,84,0.00,,,0.00,Wunderground v.1.15,2013-04-10 04:21:00,
2013-04-09 23:27:00,73.9,69.1,29.63,East,84,8.0,-999.0,85,0.00,,,0.00,Wunderground v.1.15,2013-04-10 04:27:00,
2013-04-09 23:33:00,73.9,69.1,29.63,East,93,7.0,-999.0,85,0.00,,,0.00,Wunderground v.1.15,2013-04-10 04:33:00,
2013-04-09 23:39:00,73.9,69.1,29.63,SSE,160,7.0,-999.0,85,0.00,,,0.00,Wunderground v.1.15,2013-04-10 04:39:00,
2013-04-09 23:45:00,73.9,69.1,29.63,SE,143,7.0,-999.0,85,0.00,,,0.00,Wunderground v.1.15,2013-04-10 04:45:00,
2013-04-09 23:51:00,73.9,69.1,29.63,East,99,7.0,-999.0,85,0.00,,,0.00,Wunderground v.1.15,2013-04-10 04:51:00,
2013-04-09 23:57:00,73.9,69.1,29.64,SSE,162,6.0,-999.0,85,0.00,,,0.00,Wunderground v.1.15,2013-04-10 04:57:00,